Location: Molveno
(46.1500°N, 10.9667°E)
Time: 00:58:20
(UTC+00:00)

Cosmos 1125 Rocket - Pass Details

Date: 05 July 2020
Orbit: 757 x 780 km, 74.0° (Epoch: 11 August)

Event Time Altitude Azimuth Distance (km) Brightness Sun altitude
Rises 19:43:38 0° 336° (NNW) 3,242 8.1 -5.4°
Reaches altitude 10° 19:46:01 10° 334° (NNW) 2,315 7.3 -5.7°
Maximum altitude 19:51:14 68° 252° (WSW) 832 3.9 -6.4°
Drops below altitude 10° 19:56:27 10° 171° (S) 2,313 5.5 -7.1°
Enters shadow 19:58:05 - 169° (S) 2,947 6.0 -7.3°
